Wetbulb
18.22 18.93 19.98 21.31 21.68 20.79 19.74 19.70 21.45 21.36 19.88 17.59 17.21 17.12 17.27 17.35 17.42 17.82 18.13 17.96 18.38 18.71 18.94 18.70 19.05 18.81 18.23 17.72 17.52 17.14 16.74 16.48 16.36 18.09 19.93 20.39 18.51 17.60 17.16 16.85 16.80 16.78 16.97 17.23 17.18 17.31 17.58 17.75 18.29 19.71 21.21 21.85 21.66 21.27 21.03 21.51 20.93 20.93 21.09 20.74 21.12 20.87 20.35 19.69 19.48 19.26 19.02 18.92 19.86
17.74 18.34 20.34 24.03 24.59 22.73 20.57 20.28 21.46 21.80 20.96 18.67 18.21 17.62 17.43 17.83 18.07 18.04 17.77 17.22 18.67 18.92 18.76 18.99 18.91 18.12 17.26 17.28 17.77 17.46 16.71 16.25 16.10 16.97 18.02 18.22 17.28 16.77 16.56 16.52 16.57 16.93 17.32 17.50 17.10 17.82 18.39 17.74 17.97 19.46 21.03 21.85 21.32 20.89 20.86 21.47 20.88 20.62 20.22 19.52 20.58 21.02 20.83 20.28 19.86 19.42 19.12 19.20 19.23
17.73 18.10 19.23 21.22 21.29 20.53 19.56 19.16 18.80 18.61 18.39 17.97 17.96 17.87 17.91 18.06 18.37 18.48 18.46 18.34 17.60 17.41 17.62 18.28 18.23 17.89 17.43 16.75 16.44 16.25 16.08 15.67 15.39 15.33 15.55 16.14 16.25 16.28 16.33 16.64 16.49 17.31 18.35 18.73 17.51 17.81 18.21 17.12 18.30 20.41 22.04 22.18 20.84 20.62 20.82 20.87 21.06 20.80 20.14 19.42 20.88 21.42 21.39 21.19 20.37 19.86 19.74 19.92 18.84
17.19 17.28 17.77 18.58 18.63 18.54 18.66 19.52 17.86 16.97 17.09 18.27 17.27 17.22 17.51 17.91 18.31 18.44 18.08 17.07 16.44 16.63 17.09 17.31 17.20 17.60 17.83 17.37 16.69 16.07 16.29 18.05 17.80 16.83 15.99 16.11 16.31 16.29 16.28 16.37 16.47 16.71 16.88 17.01 16.71 16.84 16.84 16.43 18.45 20.34 21.06 19.81 19.13 19.70 20.68 21.42 20.76 20.79 20.87 20.71 21.41 21.32 21.06 21.31 20.73 20.39 20.20 19.88 19.06
16.87 17.24 17.73 18.31 18.06 18.10 18.08 17.78 17.08 16.72 16.77 17.28 17.05 17.03 17.22 17.28 17.47 17.22 16.94 17.56 17.39 17.64 17.62 16.63 16.18 16.63 17.32 17.87 17.08 16.40 16.31 17.27 21.32 20.39 17.71 16.43 16.24 16.05 16.06 16.03 16.35 16.69 16.96 16.96 16.69 16.91 16.93 16.27 18.82 19.98 20.02 19.36 20.43 20.78 20.55 19.88 19.48 19.84 20.58 21.68 21.81 21.68 21.29 21.07 20.74 20.49 20.18 20.00 19.56
17.34 16.86 16.67 16.89 16.80 16.74 16.71 16.75 16.25 16.12 16.24 16.65 16.63 16.41 16.56 17.50 17.56 17.37 17.28 17.53 17.28 16.88 16.96 18.09 19.04 20.06 20.24 18.71 17.49 16.76 16.23 15.52 17.24 17.03 16.19 15.67 15.78 15.86 15.86 16.03 16.21 16.50 16.81 17.16 16.74 16.52 16.33 15.87 19.01 20.16 20.46 20.80 20.20 19.94 19.56 18.72 19.11 19.61 20.24 21.05 21.45 21.46 21.00 20.31 20.42 20.19 19.78 19.38 18.83
17.94 17.09 16.42 15.83 15.60 15.84 15.88 15.35 15.33 15.16 15.14 15.52 15.69 15.88 16.16 16.50 16.54 16.37 16.42 16.73 16.90 17.07 18.10 20.81 21.24 20.92 20.00 18.25 17.28 16.64 16.21 15.75 15.13 14.96 15.09 15.34 15.47 15.80 16.23 16.58 16.42 16.33 16.42 16.77 16.55 16.62 16.59 15.81 18.80 20.59 21.88 23.27 22.65 21.12 19.53 18.81 19.17 19.62 19.91 20.14 20.90 21.07 20.57 19.21 19.56 19.55 19.22 18.23 17.65
17.37 17.15 16.70 16.04 15.69 15.49 15.35 15.06 15.03 15.07 15.39 16.27 16.35 16.33 16.22 16.14 16.21 16.19 16.17 16.17 16.61 17.22 18.44 20.17 18.71 17.77 17.14 16.71 16.43 16.14 15.79 15.28 15.09 14.92 14.99 15.28 15.28 15.41 15.54 15.68 15.87 15.96 16.03 16.18 16.41 16.46 16.63 17.20 19.14 19.92 20.40 21.27 21.75 21.22 20.06 18.84 18.43 18.65 19.05 19.23 20.22 20.48 20.24 19.65 18.43 18.48 18.65 17.69 16.83
16.71 16.71 16.53 16.04 15.49 15.40 15.38 15.19 15.27 15.61 16.10 16.48 16.54 16.61 16.54 16.48 16.33 16.08 16.12 16.86 18.09 18.57 18.69 18.75 17.78 16.98 16.35 15.79 15.53 15.40 15.35 15.31 15.13 15.12 15.06 15.13 15.31 15.44 15.62 15.89 16.06 16.45 16.71 16.63 16.36 15.79 15.85 17.48 19.13 19.86 20.29 21.01 21.05 20.91 20.24 18.75 18.21 18.07 18.34 19.04 19.70 19.93 19.94 19.70 18.35 18.20 18.35 17.65 16.82
17.05 16.53 16.05 15.93 15.31 15.41 15.68 15.27 15.44 15.86 16.24 16.61 16.65 16.74 17.85 20.89 19.72 18.15 17.26 18.25 19.62 19.50 18.61 17.90 17.29 16.54 15.82 15.29 15.12 15.12 15.21 15.17 15.21 14.99 15.06 15.65 16.60 16.35 16.06 16.48 16.45 16.80 17.11 16.98 16.67 16.02 15.84 17.21 18.52 19.14 19.40 19.79 19.40 19.22 19.04 18.52 18.07 17.76 18.03 19.54 19.76 19.39 18.96 19.13 18.78 18.60 18.53 18.58 17.37
17.32 16.74 16.40 16.60 15.84 16.41 16.78 15.44 16.01 16.63 17.01 16.94 16.86 16.71 17.79 21.31 20.70 19.87 19.35 19.70 19.08 18.26 17.60 17.42 16.88 16.20 15.63 15.28 15.28 15.36 15.46 15.26 15.31 15.13 15.09 15.27 16.69 16.62 16.06 16.33 16.19 16.36 16.67 16.98 16.68 16.53 16.78 17.67 18.08 18.07 18.20 19.09 18.61 18.51 18.51 18.17 17.89 17.67 17.86 18.92 18.86 18.43 18.07 18.34 18.70 18.85 18.89 18.88 17.76
17.66 17.02 16.63 16.81 16.18 16.69 17.15 16.29 16.82 17.29 17.47 17.35 17.29 16.99 17.06 17.97 18.27 19.29 20.00 19.39 18.11 17.50 17.23 17.01 16.38 15.89 15.63 15.93 15.41 16.10 16.70 15.43 15.03 15.21 15.43 15.36 15.35 15.40 15.53 15.79 15.97 16.10 16.36 16.45 16.02 16.38 16.95 17.14 17.49 17.48 17.50 17.80 18.87 19.26 18.90 18.08 17.86 17.78 17.86 18.25 18.29 18.11 18.04 18.22 18.50 18.96 19.26 18.97 17.80
17.94 17.42 17.00 16.78 16.22 16.46 16.91 17.09 17.28 17.41 17.49 17.55 17.72 17.68 17.59 17.68 18.23 19.11 19.29 17.98 17.86 17.59 17.24 16.68 16.59 16.15 15.66 15.79 15.49 15.45 15.56 15.43 15.16 15.60 16.23 16.26 16.06 15.80 15.67 16.02 16.15 16.28 16.41 16.57 16.09 16.52 17.12 17.08 16.74 16.69 16.97 17.23 18.48 19.09 18.96 18.17 17.91 17.86 18.00 18.11 18.11 18.17 18.16 18.27 18.50 18.84 18.88 18.53 18.13
17.84 17.64 17.42 17.10 16.54 16.78 17.30 17.66 17.93 17.87 17.77 17.61 17.82 17.97 17.89 17.58 18.61 19.35 19.29 17.72 17.67 17.23 16.77 16.31 17.30 17.66 17.48 16.53 16.09 15.82 15.65 15.87 15.60 15.56 15.82 16.58 16.67 16.18 15.91 16.53 16.35 16.35 16.62 17.13 16.53 16.31 16.49 17.18 16.96 16.80 16.80 16.92 17.67 18.26 18.43 18.16 18.08 18.08 18.03 18.07 18.04 18.08 18.27 18.50 18.67 18.78 18.66 18.25 18.24
17.68 17.70 17.71 17.44 17.07 17.34 17.88 18.02 18.54 18.56 18.21 17.90 18.07 18.03 17.94 17.75 18.91 19.88 19.84 17.89 17.38 16.88 16.31 15.79 16.77 18.02 18.67 17.84 16.74 16.14 15.87 15.79 15.65 15.74 16.04 16.58 16.53 16.31 16.18 16.62 16.48 16.53 16.67 17.04 16.75 16.62 16.53 16.62 16.67 16.75 16.84 17.02 17.36 17.73 17.99 18.16 18.21 18.24 18.33 18.30 18.16 18.27 18.39 18.58 18.76 18.83 18.73 18.39 18.25
17.97 17.86 17.78 17.69 17.70 17.97 18.34 18.56 19.08 18.97 18.71 18.46 18.28 18.04 17.88 17.82 18.43 19.40 19.92 18.51 17.53 16.74 16.17 15.81 16.12 16.26 16.82 18.29 17.94 17.03 16.21 15.81 15.77 15.70 15.87 16.23 16.31 16.35 16.44 16.53 16.84 16.93 16.70 16.44 16.93 17.24 17.46 17.41 17.50 17.28 17.06 17.11 17.36 17.64 17.86 18.03 18.15 18.17 18.25 18.40 18.44 18.43 18.61 18.92 19.32 19.50 19.40 19.22 19.16
18.12 18.03 17.95 18.03 18.17 18.41 18.66 18.88 19.16 19.08 18.89 18.62 18.30 18.10 18.05 17.98 17.74 19.02 20.50 20.80 18.94 17.57 16.68 16.26 16.42 16.15 16.42 17.97 18.68 18.20 17.18 16.24 16.28 16.26 16.44 16.65 16.62 16.67 16.75 16.84 17.41 17.46 17.06 16.40 16.97 17.46 17.85 18.11 18.33 18.02 17.49 17.23 17.45 17.73 17.94 17.98 18.20 18.30 18.43 18.52 18.70 18.70 18.96 19.92 20.36 20.40 20.20 20.00 20.13
18.38 18.32 18.27 18.34 18.58 18.77 18.94 18.92 18.98 18.93 18.71 18.57 18.35 18.19 18.10 18.01 17.90 18.67 20.04 21.68 19.87 18.33 17.30 17.01 16.51 16.15 16.06 16.26 16.78 17.58 17.89 17.09 17.08 17.14 17.14 17.04 16.80 16.80 16.84 16.97 17.70 17.75 17.31 16.60 17.04 17.57 18.07 18.33 18.35 18.33 18.20 17.90 17.85 18.04 18.21 18.33 18.50 18.56 18.71 18.83 18.92 18.96 19.26 19.92 20.14 20.36 20.42 20.35 20.72
18.74 18.66 18.60 18.78 19.08 19.32 19.52 19.78 19.47 19.10 18.79 18.63 18.42 18.25 18.09 17.86 17.85 18.02 18.48 19.21 19.66 18.90 17.83 17.36 16.77 16.24 15.89 15.95 15.90 17.40 18.80 18.60 17.74 17.49 17.31 17.04 16.69 16.60 16.69 17.00 17.53 17.66 17.40 16.70 17.22 17.70 18.07 18.34 18.29 18.20 18.07 18.12 18.02 18.21 18.37 18.56 18.84 18.96 19.11 19.19 19.26 19.40 19.58 19.80 20.02 20.41 20.74 20.87 21.01
19.15 19.09 19.14 19.37 19.69 19.78 19.92 20.31 20.01 19.55 19.08 18.76 18.40 18.29 18.27 18.02 17.82 17.81 17.86 17.80 18.81 18.40 17.39 16.74 16.68 16.30 16.04 15.82 15.72 16.44 17.62 19.00 17.74 17.36 17.31 17.09 16.69 16.70 16.88 17.13 17.54 17.76 17.54 16.83 17.27 17.57 17.85 18.07 17.93 17.80 17.63 17.63 17.82 18.07 18.29 18.65 19.05 19.28 19.54 19.89 20.04 20.23 20.32 20.40 20.61 20.88 21.07 21.10 20.89
19.63 19.62 19.71 19.96 20.15 20.13 20.03 20.05 19.90 19.56 19.21 18.87 18.53 18.47 18.40 18.09 17.86 17.78 18.04 18.55 18.34 17.45 16.46 15.95 15.99 16.04 16.08 15.99 16.08 15.99 16.60 18.84 17.83 17.49 17.49 17.54 17.54 17.63 17.89 18.36 18.27 18.45 18.36 17.61 17.63 17.57 17.63 17.81 17.58 17.38 17.38 17.56 17.94 18.17 18.51 19.10 19.45 19.74 20.15 20.75 21.06 21.19 21.23 21.33 21.38 21.45 21.46 21.45 21.24
20.07 20.10 20.12 20.09 20.44 20.41 20.17 19.72 19.62 19.57 19.27 19.07 18.82 18.56 18.42 18.23 18.03 17.93 17.99 18.29 17.84 17.01 16.17 15.86 15.95 15.99 16.21 16.49 16.67 16.67 17.06 18.63 17.80 17.74 18.01 18.09 18.45 18.89 19.28 19.65 18.72 18.36 18.01 17.18 17.13 17.02 16.92 16.90 16.71 16.66 16.84 17.45 17.91 18.43 19.04 19.79 20.17 20.48 20.79 21.28 21.63 21.82 21.98 22.08 22.15 22.21 22.12 21.98 21.76
20.44 20.34 20.23 20.13 20.50 21.08 21.31 20.56 19.83 19.47 19.30 19.13 18.84 18.55 18.35 18.31 18.12 17.67 17.28 17.00 17.65 17.40 16.68 16.17 16.26 16.25 16.36 16.67 16.84 16.84 16.97 17.31 17.26 17.53 17.93 17.98 18.20 18.37 18.59 18.86 17.92 17.45 17.36 17.58 17.28 16.70 16.18 16.06 16.10 16.40 16.86 17.54 17.91 18.61 19.40 20.10 20.83 21.38 21.71 22.06 22.34 22.59 22.83 22.96 23.01 22.92 22.83 22.70 22.49
20.54 20.49 20.39 20.47 20.33 20.76 21.07 20.71 19.92 19.45 19.26 19.17 19.01 18.81 18.58 18.33 17.85 17.26 16.74 16.33 16.64 16.46 16.33 16.83 17.03 16.83 16.52 16.49 16.36 16.31 16.38 16.56 16.93 17.24 17.45 17.63 17.85 17.72 17.55 17.63 17.32 17.27 17.53 18.15 19.38 19.92 20.23 20.58 20.49 20.79 21.16 21.54 21.86 22.28 22.68 22.86 23.02 23.11 23.10 23.12 23.10 23.28 23.41 23.64 23.65 23.70 23.71 23.54 23.33
20.45 20.50 20.62 20.45 20.17 20.31 20.52 20.47 20.01 19.75 19.55 19.42 19.26 18.96 18.60 18.26 17.70 17.32 17.01 16.74 16.57 16.30 16.21 16.21 16.34 16.38 16.34 16.21 16.08 16.12 16.16 16.25 16.62 17.01 17.38 17.60 17.64 17.42 17.32 17.57 17.85 17.80 18.34 20.01 24.64 27.51 28.79 28.81 28.26 27.75 27.31 27.05 26.94 26.60 26.11 25.49 24.89 24.40 24.12 24.08 24.12 24.23 24.16 23.98 24.07 24.42 24.69 24.66 24.34
20.19 20.32 20.44 20.35 20.19 20.13 20.20 20.28 20.23 20.07 19.88 19.62 19.25 18.92 18.65 18.42 18.20 17.72 17.40 17.31 17.13 16.82 16.52 16.34 16.34 17.49 18.45 17.88 16.90 16.46 16.46 16.74 17.00 17.02 17.14 17.58 17.33 16.93 16.90 17.66 18.17 17.78 18.61 22.43 26.93 29.54 30.92 31.82 32.14 31.71 30.65 29.29 28.20 27.31 26.72 26.43 25.81 25.44 25.28 25.37 25.82 26.03 25.90 25.48 25.03 24.94 25.11 25.40 25.27
19.98 20.17 20.38 20.45 20.24 20.19 20.23 20.47 20.42 20.26 20.03 19.77 19.45 19.19 18.96 18.69 18.48 17.94 17.58 17.48 17.46 17.02 16.60 16.48 16.39 18.90 20.83 19.17 17.43 16.69 16.73 17.49 17.13 16.88 16.72 16.85 16.80 16.68 16.88 17.80 17.82 17.83 19.42 24.47 28.31 30.44 31.67 32.63 33.22 33.26 32.48 30.36 28.85 27.85 27.35 27.24 26.94 26.87 27.00 27.40 27.77 27.68 27.38 26.67 25.94 25.59 25.46 25.60 25.71
19.92 20.18 20.39 20.43 20.28 20.33 20.45 20.51 20.36 20.23 20.13 20.11 19.89 19.63 19.33 18.86 18.37 17.97 17.75 17.68 17.41 17.06 16.82 16.87 17.48 18.42 18.72 17.53 16.91 16.70 16.82 17.02 17.11 17.10 17.01 16.62 16.80 16.72 16.91 17.82 17.62 19.11 22.38 27.64 29.98 31.33 32.14 32.90 33.34 33.68 33.46 32.36 30.47 29.47 28.88 28.68 28.67 28.77 28.95 29.08 29.03 28.71 28.19 27.64 27.15 26.71 26.20 26.00 25.94
20.04 20.34 20.52 20.37 20.36 20.53 20.59 20.48 20.33 20.36 20.40 20.43 20.12 19.83 19.48 19.04 18.64 18.30 18.02 17.63 17.32 17.29 17.47 17.89 18.70 18.24 17.21 16.65 16.66 16.49 16.15 15.79 16.50 16.81 16.81 16.46 16.54 16.65 16.85 17.22 17.48 20.30 24.61 29.26 30.66 31.56 32.18 32.85 33.37 33.89 34.19 34.22 32.53 31.30 30.68 30.41 30.36 30.45 30.44 30.14 29.91 29.57 29.17 28.77 28.66 28.51 28.10 27.69 27.37
20.26 20.52 20.59 20.55 20.55 20.68 20.63 20.58 20.71 20.81 20.80 20.69 20.20 19.76 19.34 19.09 18.73 18.48 18.08 17.73 17.60 17.92 18.40 18.62 18.34 17.74 17.21 17.18 16.69 16.31 16.13 16.33 16.68 16.46 15.97 15.76 15.91 16.43 17.46 19.12 18.75 20.81 24.60 29.23 30.56 31.56 32.24 32.90 33.58 34.14 34.68 35.08 33.70 32.43 31.47 31.16 30.96 30.72 30.52 30.20 29.69 29.27 29.09 28.97 28.91 28.81 28.65 28.55 28.37
20.45 20.62 20.75 20.72 20.72 20.72 20.75 20.85 20.97 20.96 20.86 20.63 20.14 19.67 19.39 19.18 18.92 18.69 18.41 18.13 18.38 19.37 20.00 19.31 18.18 17.65 17.49 17.22 16.69 16.40 16.31 16.35 16.18 15.97 15.75 15.50 17.78 18.80 19.03 18.83 17.80 20.22 24.54 29.12 30.61 31.69 32.53 33.28 33.92 34.42 34.96 35.37 34.32 32.82 31.72 31.19 30.70 30.14 29.71 29.31 29.12 29.01 28.98 29.02 29.00 28.95 28.85 28.77 28.64
20.64 20.79 20.82 20.84 20.79 20.89 21.01 21.10 21.06 20.88 20.69 20.32 20.00 19.72 19.50 19.33 19.19 18.94 18.73 18.71 18.99 19.39 19.48 18.90 18.10 17.74 17.45 17.04 16.75 16.44 16.15 16.06 16.15 16.49 16.84 17.11 17.23 17.37 17.68 18.69 17.80 20.36 24.79 29.33 30.81 31.94 32.77 33.54 34.06 34.59 35.01 35.47 34.48 32.78 31.01 30.14 29.48 29.12 29.06 28.98 29.04 29.15 29.30 29.50 29.50 29.48 29.30 29.19 29.02
20.73 20.81 20.83 20.87 20.91 21.00 21.10 21.00 20.86 20.73 20.42 20.16 19.93 19.76 19.58 19.46 19.12 18.71 18.47 18.69 19.20 19.05 18.82 18.63 18.33 18.09 17.93 17.55 17.36 16.98 16.80 16.84 17.38 18.55 19.84 20.39 19.25 18.52 18.42 19.71 19.03 22.16 26.54 29.95 31.26 32.26 32.99 33.51 34.06 34.52 35.06 35.52 34.14 32.12 29.98 28.64 28.57 28.77 29.06 29.36 29.61 29.88 30.02 30.00 29.98 29.92 29.69 29.56 29.25
20.79 20.81 20.86 20.96 21.16 21.13 21.09 20.88 20.70 20.48 20.22 19.89 19.77 19.67 19.55 19.25 18.80 18.54 18.58 19.23 19.57 19.41 19.18 18.90 18.82 18.73 18.55 18.33 18.17 17.86 18.24 20.17 19.38 18.43 17.76 17.82 17.33 17.33 17.78 18.59 19.39 23.19 27.75 30.40 31.46 32.27 32.95 33.47 34.02 34.48 34.90 35.32 33.28 30.93 28.90 27.94 28.21 28.79 29.35 29.84 30.24 30.44 30.52 30.56 30.35 30.08 29.68 29.19 28.91
20.78 20.79 20.79 20.88 21.18 21.13 20.96 20.73 20.49 20.18 19.91 19.64 19.60 19.52 19.35 19.08 18.74 18.62 19.00 20.20 20.72 20.24 19.48 18.98 18.77 18.59 18.37 17.99 17.80 17.86 18.35 19.61 18.73 17.82 17.15 16.84 16.49 17.06 17.99 18.71 19.73 23.67 28.09 30.46 31.40 32.14 32.82 33.34 33.85 34.32 34.57 34.38 31.98 29.96 28.59 27.93 28.67 29.36 29.96 30.42 30.62 30.68 30.64 30.47 30.19 29.57 28.79 27.84 27.78
20.93 20.83 20.74 20.80 21.00 21.00 20.83 20.58 20.22 19.87 19.62 19.48 19.40 19.32 19.13 18.93 18.80 18.84 19.53 21.15 21.34 20.70 19.87 19.48 18.99 18.53 18.24 17.93 17.50 18.51 19.31 18.46 17.94 17.67 17.63 17.82 17.15 17.06 17.53 18.32 19.30 23.01 27.33 30.16 31.10 31.93 32.57 33.18 33.65 34.04 33.97 32.92 30.76 29.59 29.17 29.27 29.73 30.16 30.58 30.82 30.59 30.42 30.14 29.83 29.49 28.39 26.99 25.77 25.96
21.11 21.01 20.93 20.81 20.88 20.80 20.72 20.49 20.02 19.62 19.37 19.28 19.35 19.22 19.08 18.89 18.80 18.94 19.61 21.02 20.45 19.91 19.62 19.47 19.15 18.77 18.45 18.38 18.46 19.05 19.31 18.30 17.67 17.63 18.21 19.60 19.17 18.51 18.20 18.83 18.99 21.80 25.94 29.62 30.88 31.68 32.33 32.88 33.39 33.66 33.39 31.78 30.09 29.46 29.58 30.05 30.22 30.60 30.84 30.58 30.06 29.55 29.13 28.94 28.50 26.83 25.01 23.75 25.02
21.29 21.28 21.16 20.94 20.80 20.76 20.62 20.28 19.89 19.48 19.25 19.24 19.31 19.30 19.21 19.02 18.94 19.03 19.77 21.46 20.40 19.78 19.48 19.26 18.98 18.73 18.51 18.52 18.81 18.85 18.59 18.03 18.26 18.24 18.33 18.90 18.77 18.64 18.56 19.03 19.27 21.55 25.03 29.07 30.51 31.43 31.91 32.46 33.05 33.48 33.16 31.53 30.03 29.62 29.66 29.82 30.19 30.59 30.75 30.19 29.46 28.47 27.62 27.59 27.14 25.57 23.87 23.07 27.09
21.50 21.50 21.38 21.11 20.89 20.68 20.48 20.17 19.78 19.55 19.39 19.34 19.33 19.29 19.20 19.06 19.06 19.48 20.38 21.77 20.70 20.13 19.80 19.53 19.18 18.96 19.09 19.79 19.80 19.23 18.43 17.73 18.25 18.90 19.11 18.37 18.70 20.27 21.66 21.40 20.76 22.11 24.78 28.63 30.10 30.94 31.50 32.10 32.86 33.51 33.53 32.29 30.54 29.83 29.65 29.69 29.96 30.35 30.36 29.61 28.57 26.96 25.73 25.76 25.46 24.32 23.20 22.81 28.00
21.78 21.69 21.46 21.17 20.96 20.75 20.41 20.07 19.83 19.73 19.72 19.55 19.33 19.20 19.12 19.20 19.79 20.56 21.21 21.65 20.75 20.27 19.95 19.79 19.51 19.52 20.22 22.15 21.36 19.92 18.54 17.90 17.02 17.49 18.45 19.12 20.31 23.32 25.44 23.93 21.75 21.68 23.50 27.21 29.15 30.32 31.14 31.99 32.74 33.51 33.64 32.48 30.71 29.93 29.76 29.50 29.93 30.13 29.82 28.83 26.82 25.07 23.99 24.03 23.97 23.14 22.05 21.24 25.05
21.81 21.66 21.47 21.26 21.02 20.72 20.45 20.11 19.95 19.97 19.90 19.72 19.46 19.60 19.94 20.50 20.72 20.88 20.98 20.76 20.44 20.26 20.22 20.20 19.88 19.75 20.46 22.49 21.86 20.27 18.67 18.01 17.46 17.01 17.58 19.84 20.96 23.27 24.58 22.74 20.44 19.58 20.53 23.75 27.53 29.82 31.13 31.95 32.74 33.44 33.61 32.95 31.21 30.05 29.49 29.30 29.92 29.97 29.34 27.91 25.13 23.65 22.97 22.93 22.98 22.09 20.81 19.61 21.08
MSLP
1027.35 1027.47 1027.59 1027.67 1027.79 1027.91 1028.07 1028.11 1028.15 1028.19 1028.35 1028.47 1028.59 1028.67 1028.75 1028.79 1028.87 1028.87 1028.87 1028.91 1028.99 1028.99 1028.99 1028.95 1028.95 1028.91 1028.91 1028.87 1028.87 1028.87 1028.83 1028.79 1028.79 1028.71 1028.63 1028.59 1028.51 1028.43 1028.35 1028.31 1028.19 1028.19 1028.11 1028.07 1027.99 1027.95 1027.91 1027.83 1027.79 1027.71 1027.55 1027.39 1027.27 1027.15 1027.03 1026.87 1026.83 1026.75 1026.63 1026.55 1026.47 1026.31 1026.19 1026.07 1025.91 1025.79 1025.63 1025.47 1025.35
1027.15 1027.27 1027.35 1027.39 1027.47 1027.63 1027.79 1027.91 1027.91 1027.99 1028.07 1028.19 1028.27 1028.35 1028.47 1028.51 1028.59 1028.63 1028.67 1028.75 1028.71 1028.71 1028.75 1028.75 1028.75 1028.79 1028.79 1028.67 1028.67 1028.67 1028.67 1028.63 1028.63 1028.55 1028.47 1028.43 1028.35 1028.27 1028.19 1028.11 1028.07 1027.99 1027.95 1027.91 1027.91 1027.83 1027.79 1027.71 1027.67 1027.59 1027.39 1027.19 1027.11 1026.99 1026.83 1026.71 1026.67 1026.59 1026.47 1026.39 1026.31 1026.19 1026.07 1025.95 1025.79 1025.63 1025.47 1025.31 1025.11
1026.91 1027.07 1027.15 1027.23 1027.35 1027.47 1027.59 1027.67 1027.79 1027.87 1027.91 1027.99 1028.07 1028.11 1028.19 1028.27 1028.35 1028.39 1028.43 1028.47 1028.47 1028.51 1028.59 1028.59 1028.55 1028.55 1028.55 1028.55 1028.51 1028.51 1028.51 1028.47 1028.47 1028.43 1028.35 1028.31 1028.19 1028.15 1028.07 1027.95 1027.91 1027.83 1027.79 1027.71 1027.71 1027.63 1027.59 1027.55 1027.51 1027.43 1027.23 1027.07 1026.95 1026.83 1026.67 1026.55 1026.47 1026.39 1026.31 1026.19 1026.11 1025.99 1025.91 1025.71 1025.55 1025.39 1025.27 1025.07 1024.95
1026.67 1026.83 1026.95 1027.07 1027.11 1027.23 1027.35 1027.39 1027.55 1027.67 1027.79 1027.79 1027.87 1027.95 1028.03 1028.07 1028.11 1028.15 1028.19 1028.23 1028.31 1028.35 1028.39 1028.43 1028.39 1028.35 1028.35 1028.39 1028.35 1028.35 1028.35 1028.27 1028.27 1028.27 1028.19 1028.15 1028.07 1027.95 1027.87 1027.79 1027.79 1027.67 1027.59 1027.55 1027.55 1027.51 1027.47 1027.43 1027.35 1027.23 1027.07 1026.95 1026.87 1026.75 1026.55 1026.39 1026.31 1026.23 1026.15 1026.03 1025.91 1025.83 1025.71 1025.55 1025.39 1025.23 1025.07 1024.91 1024.79
1026.47 1026.55 1026.63 1026.75 1026.87 1026.91 1027.03 1027.15 1027.31 1027.47 1027.55 1027.63 1027.75 1027.79 1027.87 1027.91 1027.91 1027.99 1028.07 1028.11 1028.15 1028.15 1028.15 1028.19 1028.19 1028.19 1028.19 1028.19 1028.19 1028.19 1028.15 1028.11 1028.03 1028.03 1028.07 1027.99 1027.91 1027.79 1027.71 1027.67 1027.63 1027.51 1027.43 1027.39 1027.35 1027.35 1027.31 1027.31 1027.19 1027.07 1026.95 1026.83 1026.67 1026.51 1026.35 1026.27 1026.19 1026.07 1025.95 1025.79 1025.71 1025.63 1025.55 1025.39 1025.23 1025.07 1024.91 1024.79 1024.63
1026.19 1026.31 1026.39 1026.47 1026.59 1026.71 1026.83 1026.95 1027.07 1027.19 1027.35 1027.47 1027.63 1027.67 1027.71 1027.75 1027.79 1027.87 1027.91 1027.95 1027.91 1027.91 1027.95 1027.95 1027.95 1027.95 1027.95 1028.03 1028.03 1028.07 1028.03 1028.03 1027.91 1027.91 1027.91 1027.83 1027.75 1027.63 1027.59 1027.51 1027.43 1027.35 1027.27 1027.23 1027.19 1027.15 1027.15 1027.19 1027.03 1026.91 1026.79 1026.63 1026.47 1026.31 1026.19 1026.11 1026.03 1025.91 1025.79 1025.63 1025.51 1025.43 1025.35 1025.23 1025.07 1024.91 1024.79 1024.63 1024.39
1025.83 1026.03 1026.19 1026.27 1026.39 1026.51 1026.63 1026.75 1026.91 1027.03 1027.19 1027.31 1027.39 1027.47 1027.47 1027.51 1027.59 1027.63 1027.71 1027.71 1027.71 1027.75 1027.75 1027.75 1027.79 1027.79 1027.83 1027.87 1027.91 1027.91 1027.91 1027.83 1027.83 1027.79 1027.79 1027.67 1027.59 1027.47 1027.39 1027.31 1027.23 1027.19 1027.15 1027.07 1027.07 1026.99 1026.95 1026.95 1026.91 1026.75 1026.59 1026.39 1026.23 1026.07 1025.99 1025.91 1025.83 1025.79 1025.63 1025.47 1025.35 1025.19 1025.07 1024.99 1024.83 1024.71 1024.63 1024.39 1024.19
1025.55 1025.75 1025.87 1026.03 1026.15 1026.27 1026.39 1026.55 1026.75 1026.91 1027.03 1027.11 1027.19 1027.19 1027.23 1027.31 1027.35 1027.39 1027.47 1027.51 1027.55 1027.59 1027.59 1027.55 1027.63 1027.63 1027.67 1027.71 1027.75 1027.75 1027.71 1027.71 1027.67 1027.63 1027.59 1027.51 1027.43 1027.35 1027.23 1027.19 1027.11 1027.07 1026.95 1026.91 1026.87 1026.83 1026.79 1026.79 1026.67 1026.55 1026.43 1026.27 1026.15 1025.95 1025.79 1025.75 1025.71 1025.63 1025.47 1025.35 1025.11 1024.95 1024.87 1024.75 1024.63 1024.51 1024.35 1024.19 1024.03
1025.43 1025.51 1025.63 1025.79 1025.91 1026.07 1026.19 1026.35 1026.51 1026.67 1026.79 1026.87 1026.91 1026.91 1026.95 1027.07 1027.15 1027.19 1027.27 1027.35 1027.31 1027.31 1027.35 1027.39 1027.43 1027.47 1027.51 1027.55 1027.59 1027.59 1027.59 1027.55 1027.51 1027.43 1027.39 1027.35 1027.31 1027.19 1027.11 1027.03 1026.95 1026.87 1026.79 1026.75 1026.71 1026.67 1026.67 1026.63 1026.47 1026.35 1026.23 1026.11 1025.95 1025.79 1025.67 1025.55 1025.51 1025.47 1025.31 1025.15 1024.91 1024.71 1024.55 1024.43 1024.35 1024.23 1024.11 1023.91 1023.75
1025.19 1025.31 1025.47 1025.63 1025.71 1025.83 1025.95 1026.15 1026.27 1026.39 1026.47 1026.59 1026.63 1026.67 1026.75 1026.79 1026.83 1026.91 1027.03 1027.07 1027.07 1027.11 1027.19 1027.23 1027.23 1027.31 1027.35 1027.35 1027.39 1027.39 1027.35 1027.35 1027.35 1027.31 1027.23 1027.19 1027.07 1027.03 1026.91 1026.83 1026.79 1026.71 1026.63 1026.55 1026.47 1026.47 1026.47 1026.47 1026.35 1026.19 1026.07 1025.91 1025.79 1025.67 1025.51 1025.43 1025.35 1025.23 1025.07 1024.87 1024.67 1024.51 1024.35 1024.19 1024.07 1023.95 1023.79 1023.63 1023.43
1024.83 1025.03 1025.19 1025.35 1025.47 1025.63 1025.83 1025.99 1026.11 1026.19 1026.27 1026.35 1026.39 1026.47 1026.55 1026.55 1026.63 1026.67 1026.75 1026.79 1026.91 1026.99 1026.99 1027.03 1027.07 1027.11 1027.15 1027.15 1027.19 1027.19 1027.19 1027.15 1027.15 1027.07 1027.07 1026.99 1026.91 1026.79 1026.79 1026.67 1026.63 1026.55 1026.47 1026.39 1026.35 1026.31 1026.31 1026.23 1026.15 1026.03 1025.91 1025.71 1025.63 1025.47 1025.35 1025.19 1025.11 1024.99 1024.83 1024.63 1024.47 1024.35 1024.15 1023.91 1023.75 1023.63 1023.47 1023.27 1023.07
1024.55 1024.79 1024.91 1025.07 1025.27 1025.47 1025.63 1025.79 1025.91 1026.03 1026.07 1026.11 1026.19 1026.27 1026.35 1026.39 1026.43 1026.47 1026.55 1026.67 1026.75 1026.79 1026.79 1026.79 1026.87 1026.91 1026.91 1026.91 1026.95 1026.91 1026.91 1026.95 1026.91 1026.91 1026.83 1026.79 1026.71 1026.63 1026.55 1026.47 1026.43 1026.35 1026.31 1026.19 1026.19 1026.15 1026.11 1026.07 1025.95 1025.87 1025.75 1025.55 1025.43 1025.31 1025.15 1025.03 1024.91 1024.75 1024.55 1024.35 1024.23 1024.07 1023.91 1023.63 1023.47 1023.31 1023.15 1022.95 1022.79
1024.35 1024.59 1024.79 1024.91 1025.07 1025.27 1025.47 1025.55 1025.67 1025.79 1025.87 1025.91 1025.95 1026.07 1026.11 1026.19 1026.19 1026.31 1026.39 1026.51 1026.55 1026.55 1026.59 1026.63 1026.63 1026.71 1026.75 1026.75 1026.71 1026.71 1026.75 1026.71 1026.75 1026.71 1026.63 1026.59 1026.51 1026.47 1026.35 1026.31 1026.23 1026.15 1026.07 1026.07 1025.99 1025.95 1025.91 1025.87 1025.79 1025.71 1025.55 1025.39 1025.23 1025.07 1024.91 1024.79 1024.67 1024.51 1024.35 1024.19 1023.99 1023.79 1023.63 1023.35 1023.15 1022.95 1022.79 1022.67 1022.47
1024.19 1024.39 1024.59 1024.71 1024.91 1025.11 1025.23 1025.35 1025.47 1025.55 1025.63 1025.75 1025.79 1025.83 1025.91 1025.99 1026.03 1026.07 1026.19 1026.27 1026.31 1026.35 1026.39 1026.43 1026.43 1026.47 1026.47 1026.47 1026.47 1026.47 1026.47 1026.47 1026.51 1026.51 1026.47 1026.35 1026.31 1026.27 1026.19 1026.11 1026.03 1025.95 1025.91 1025.83 1025.79 1025.71 1025.67 1025.63 1025.55 1025.47 1025.35 1025.23 1025.03 1024.83 1024.67 1024.59 1024.43 1024.27 1024.11 1023.91 1023.75 1023.55 1023.31 1023.07 1022.83 1022.67 1022.55 1022.39 1022.19
1024.03 1024.19 1024.35 1024.55 1024.75 1024.87 1024.99 1025.11 1025.19 1025.31 1025.43 1025.51 1025.55 1025.59 1025.71 1025.79 1025.79 1025.87 1025.95 1026.03 1026.07 1026.15 1026.19 1026.27 1026.27 1026.23 1026.19 1026.19 1026.23 1026.27 1026.31 1026.31 1026.31 1026.31 1026.31 1026.19 1026.15 1026.07 1026.03 1025.91 1025.83 1025.79 1025.67 1025.63 1025.55 1025.47 1025.43 1025.39 1025.31 1025.19 1025.11 1025.03 1024.83 1024.63 1024.47 1024.35 1024.15 1023.95 1023.79 1023.63 1023.47 1023.19 1022.99 1022.79 1022.55 1022.43 1022.31 1022.15 1021.95
1023.79 1023.99 1024.19 1024.35 1024.51 1024.63 1024.75 1024.87 1024.95 1025.07 1025.19 1025.27 1025.35 1025.43 1025.51 1025.59 1025.63 1025.67 1025.75 1025.83 1025.91 1025.99 1026.07 1026.07 1026.07 1026.07 1026.03 1025.99 1025.99 1026.07 1026.07 1026.11 1026.11 1026.11 1026.11 1026.07 1025.95 1025.87 1025.79 1025.75 1025.63 1025.55 1025.47 1025.39 1025.35 1025.23 1025.15 1025.11 1025.07 1024.95 1024.87 1024.79 1024.63 1024.39 1024.19 1024.07 1023.87 1023.63 1023.47 1023.23 1023.07 1022.91 1022.67 1022.47 1022.31 1022.11 1021.99 1021.83 1021.63
1023.63 1023.79 1023.99 1024.15 1024.27 1024.35 1024.47 1024.59 1024.71 1024.83 1024.91 1025.03 1025.15 1025.23 1025.35 1025.35 1025.47 1025.47 1025.55 1025.55 1025.67 1025.79 1025.87 1025.87 1025.83 1025.87 1025.83 1025.79 1025.79 1025.83 1025.91 1025.91 1025.91 1025.91 1025.91 1025.83 1025.75 1025.67 1025.63 1025.51 1025.43 1025.35 1025.27 1025.19 1025.15 1025.03 1024.91 1024.83 1024.75 1024.67 1024.63 1024.47 1024.35 1024.19 1023.95 1023.75 1023.55 1023.35 1023.07 1022.87 1022.71 1022.51 1022.35 1022.15 1021.99 1021.83 1021.67 1021.51 1021.35
1023.35 1023.51 1023.71 1023.91 1023.99 1024.07 1024.19 1024.31 1024.47 1024.59 1024.71 1024.79 1024.91 1025.03 1025.07 1025.15 1025.27 1025.31 1025.31 1025.31 1025.43 1025.55 1025.63 1025.63 1025.63 1025.67 1025.67 1025.63 1025.63 1025.63 1025.67 1025.71 1025.71 1025.67 1025.63 1025.63 1025.47 1025.43 1025.35 1025.27 1025.19 1025.07 1025.07 1024.99 1024.91 1024.79 1024.67 1024.59 1024.47 1024.39 1024.31 1024.19 1024.07 1023.87 1023.63 1023.47 1023.19 1022.95 1022.75 1022.51 1022.35 1022.19 1021.99 1021.83 1021.67 1021.51 1021.35 1021.19 1020.95
1023.07 1023.23 1023.43 1023.59 1023.63 1023.75 1023.91 1024.07 1024.19 1024.35 1024.47 1024.63 1024.75 1024.83 1024.91 1024.95 1025.07 1025.11 1025.15 1025.19 1025.19 1025.27 1025.35 1025.39 1025.47 1025.47 1025.47 1025.47 1025.47 1025.47 1025.43 1025.43 1025.47 1025.43 1025.39 1025.35 1025.27 1025.19 1025.15 1025.07 1024.95 1024.87 1024.79 1024.79 1024.63 1024.55 1024.43 1024.35 1024.19 1024.15 1024.07 1023.91 1023.75 1023.55 1023.35 1023.11 1022.87 1022.63 1022.39 1022.19 1021.99 1021.83 1021.63 1021.47 1021.31 1021.15 1020.99 1020.79 1020.59
1022.75 1022.91 1023.07 1023.19 1023.31 1023.47 1023.63 1023.79 1023.95 1024.11 1024.27 1024.39 1024.51 1024.63 1024.71 1024.79 1024.83 1024.91 1024.99 1025.03 1024.99 1025.07 1025.15 1025.23 1025.27 1025.27 1025.27 1025.27 1025.31 1025.23 1025.19 1025.19 1025.19 1025.19 1025.15 1025.07 1025.07 1024.99 1024.91 1024.83 1024.75 1024.63 1024.59 1024.51 1024.39 1024.27 1024.15 1024.07 1023.95 1023.87 1023.79 1023.63 1023.47 1023.23 1022.99 1022.75 1022.47 1022.27 1022.07 1021.87 1021.63 1021.47 1021.27 1021.07 1020.91 1020.71 1020.55 1020.39 1020.23
1022.35 1022.51 1022.63 1022.79 1023.03 1023.19 1023.35 1023.55 1023.75 1023.91 1024.07 1024.19 1024.35 1024.43 1024.47 1024.59 1024.63 1024.71 1024.75 1024.75 1024.79 1024.91 1024.99 1025.07 1025.07 1025.07 1025.07 1025.07 1025.07 1025.03 1024.99 1024.99 1024.99 1024.95 1024.91 1024.87 1024.83 1024.75 1024.63 1024.55 1024.47 1024.39 1024.35 1024.23 1024.11 1024.03 1023.91 1023.75 1023.67 1023.63 1023.51 1023.35 1023.15 1022.91 1022.67 1022.39 1022.15 1021.91 1021.67 1021.51 1021.27 1021.07 1020.83 1020.63 1020.47 1020.31 1020.15 1019.99 1019.83
1021.95 1022.15 1022.35 1022.59 1022.79 1022.95 1023.19 1023.39 1023.59 1023.75 1023.91 1024.03 1024.15 1024.19 1024.31 1024.35 1024.43 1024.47 1024.51 1024.59 1024.67 1024.75 1024.79 1024.83 1024.87 1024.87 1024.87 1024.83 1024.79 1024.79 1024.75 1024.71 1024.75 1024.75 1024.67 1024.63 1024.59 1024.47 1024.35 1024.31 1024.23 1024.19 1024.11 1024.03 1023.87 1023.75 1023.63 1023.51 1023.43 1023.31 1023.19 1023.03 1022.79 1022.55 1022.31 1022.07 1021.79 1021.59 1021.35 1021.11 1020.87 1020.63 1020.43 1020.23 1020.07 1019.91 1019.75 1019.59 1019.47
1021.67 1021.91 1022.19 1022.43 1022.63 1022.79 1022.95 1023.19 1023.39 1023.59 1023.75 1023.87 1023.91 1024.07 1024.15 1024.19 1024.19 1024.27 1024.35 1024.47 1024.51 1024.55 1024.59 1024.59 1024.63 1024.63 1024.59 1024.59 1024.55 1024.55 1024.55 1024.51 1024.51 1024.51 1024.47 1024.43 1024.35 1024.27 1024.19 1024.11 1024.07 1023.99 1023.91 1023.75 1023.63 1023.55 1023.43 1023.27 1023.11 1022.99 1022.83 1022.63 1022.39 1022.15 1021.91 1021.67 1021.47 1021.23 1021.03 1020.79 1020.47 1020.27 1020.03 1019.83 1019.67 1019.47 1019.35 1019.19 1019.07
1021.47 1021.75 1022.03 1022.27 1022.47 1022.63 1022.79 1022.99 1023.19 1023.39 1023.55 1023.63 1023.75 1023.87 1023.91 1023.99 1024.07 1024.15 1024.19 1024.27 1024.35 1024.35 1024.39 1024.39 1024.39 1024.39 1024.39 1024.35 1024.35 1024.35 1024.39 1024.39 1024.35 1024.27 1024.23 1024.19 1024.15 1024.07 1023.99 1023.91 1023.87 1023.75 1023.63 1023.47 1023.35 1023.23 1023.07 1022.87 1022.63 1022.43 1022.27 1022.07 1021.87 1021.63 1021.39 1021.19 1021.03 1020.79 1020.63 1020.39 1020.15 1019.91 1019.67 1019.47 1019.23 1019.07 1018.95 1018.79 1018.63
1021.35 1021.59 1021.83 1022.07 1022.27 1022.43 1022.63 1022.79 1022.95 1023.15 1023.27 1023.39 1023.51 1023.63 1023.75 1023.79 1023.91 1023.95 1024.07 1024.11 1024.15 1024.15 1024.19 1024.19 1024.19 1024.19 1024.19 1024.19 1024.19 1024.19 1024.19 1024.19 1024.19 1024.11 1024.07 1023.95 1023.91 1023.83 1023.75 1023.71 1023.63 1023.51 1023.39 1023.19 1022.95 1022.63 1022.39 1022.15 1021.95 1021.75 1021.55 1021.39 1021.23 1021.07 1020.83 1020.67 1020.55 1020.39 1020.19 1020.07 1019.79 1019.55 1019.35 1019.11 1018.91 1018.75 1018.59 1018.43 1018.27
1021.15 1021.43 1021.67 1021.87 1022.07 1022.23 1022.39 1022.55 1022.67 1022.83 1023.03 1023.19 1023.35 1023.47 1023.55 1023.63 1023.67 1023.75 1023.83 1023.91 1023.91 1023.91 1023.95 1023.99 1024.03 1024.03 1023.99 1023.99 1023.95 1023.95 1023.95 1023.95 1023.91 1023.91 1023.83 1023.75 1023.67 1023.63 1023.55 1023.47 1023.35 1023.27 1023.15 1022.91 1022.59 1022.27 1021.99 1021.71 1021.43 1021.19 1021.07 1020.95 1020.83 1020.67 1020.51 1020.35 1020.11 1019.95 1019.83 1019.63 1019.43 1019.19 1019.03 1018.79 1018.59 1018.39 1018.23 1018.07 1017.87
1020.99 1021.23 1021.43 1021.63 1021.83 1022.03 1022.15 1022.23 1022.39 1022.63 1022.79 1022.99 1023.11 1023.23 1023.31 1023.35 1023.47 1023.55 1023.63 1023.67 1023.71 1023.75 1023.75 1023.79 1023.83 1023.79 1023.75 1023.75 1023.75 1023.75 1023.71 1023.63 1023.63 1023.63 1023.63 1023.55 1023.51 1023.43 1023.35 1023.19 1023.11 1022.99 1022.83 1022.59 1022.23 1021.91 1021.63 1021.35 1021.07 1020.87 1020.71 1020.63 1020.51 1020.35 1020.19 1019.99 1019.79 1019.63 1019.43 1019.23 1019.03 1018.87 1018.71 1018.51 1018.35 1018.15 1017.95 1017.75 1017.55
1020.79 1020.99 1021.19 1021.47 1021.63 1021.75 1021.87 1022.03 1022.23 1022.39 1022.55 1022.67 1022.83 1022.95 1023.07 1023.19 1023.27 1023.35 1023.43 1023.47 1023.47 1023.55 1023.59 1023.63 1023.59 1023.59 1023.59 1023.59 1023.55 1023.51 1023.47 1023.43 1023.39 1023.39 1023.39 1023.35 1023.31 1023.23 1023.11 1022.95 1022.83 1022.71 1022.51 1022.19 1021.87 1021.55 1021.27 1021.07 1020.79 1020.63 1020.47 1020.31 1020.15 1019.99 1019.83 1019.63 1019.43 1019.23 1019.07 1018.87 1018.71 1018.55 1018.47 1018.31 1018.07 1017.91 1017.67 1017.47 1017.35
1020.47 1020.75 1020.99 1021.19 1021.35 1021.47 1021.63 1021.83 1021.95 1022.07 1022.19 1022.39 1022.55 1022.71 1022.83 1022.95 1023.07 1023.11 1023.19 1023.27 1023.31 1023.35 1023.39 1023.35 1023.35 1023.39 1023.43 1023.39 1023.31 1023.23 1023.23 1023.23 1023.19 1023.19 1023.19 1023.15 1023.07 1022.99 1022.87 1022.75 1022.59 1022.43 1022.19 1021.91 1021.59 1021.31 1021.07 1020.83 1020.59 1020.35 1020.15 1019.95 1019.79 1019.63 1019.47 1019.35 1019.15 1018.95 1018.79 1018.63 1018.47 1018.35 1018.19 1018.03 1017.79 1017.63 1017.43 1017.27 1017.11
1020.23 1020.47 1020.75 1020.91 1021.07 1021.23 1021.39 1021.51 1021.67 1021.83 1021.99 1022.15 1022.35 1022.51 1022.63 1022.71 1022.79 1022.91 1022.95 1023.03 1023.07 1023.07 1023.11 1023.11 1023.19 1023.19 1023.19 1023.07 1023.07 1023.03 1023.03 1022.99 1022.99 1022.99 1022.99 1022.95 1022.91 1022.75 1022.59 1022.43 1022.31 1022.15 1021.91 1021.63 1021.35 1021.07 1020.83 1020.55 1020.35 1020.07 1019.87 1019.63 1019.47 1019.35 1019.19 1019.03 1018.91 1018.71 1018.55 1018.39 1018.23 1018.11 1017.99 1017.75 1017.59 1017.39 1017.23 1017.07 1016.91
1019.95 1020.19 1020.43 1020.63 1020.79 1020.95 1021.07 1021.23 1021.39 1021.63 1021.79 1021.99 1022.15 1022.27 1022.39 1022.47 1022.55 1022.63 1022.71 1022.79 1022.79 1022.83 1022.87 1022.91 1022.99 1022.95 1022.91 1022.83 1022.83 1022.83 1022.79 1022.79 1022.75 1022.79 1022.79 1022.79 1022.63 1022.47 1022.35 1022.19 1022.07 1021.95 1021.75 1021.47 1021.15 1020.87 1020.59 1020.31 1020.07 1019.79 1019.63 1019.39 1019.23 1019.11 1018.99 1018.83 1018.71 1018.55 1018.39 1018.19 1018.07 1017.91 1017.79 1017.63 1017.43 1017.23 1017.07 1016.91 1016.75
1019.71 1019.95 1020.19 1020.39 1020.55 1020.67 1020.83 1021.07 1021.23 1021.47 1021.63 1021.79 1021.91 1022.03 1022.11 1022.19 1022.27 1022.35 1022.43 1022.51 1022.59 1022.63 1022.71 1022.75 1022.79 1022.71 1022.67 1022.63 1022.63 1022.63 1022.59 1022.59 1022.55 1022.51 1022.51 1022.47 1022.39 1022.27 1022.11 1021.99 1021.91 1021.75 1021.51 1021.23 1020.91 1020.59 1020.31 1020.03 1019.75 1019.59 1019.35 1019.15 1018.99 1018.87 1018.79 1018.67 1018.55 1018.39 1018.19 1018.03 1017.87 1017.75 1017.63 1017.47 1017.23 1017.07 1016.95 1016.79 1016.63
1019.47 1019.71 1019.91 1020.07 1020.23 1020.43 1020.63 1020.91 1021.07 1021.27 1021.43 1021.59 1021.67 1021.75 1021.83 1021.91 1022.03 1022.11 1022.23 1022.35 1022.39 1022.47 1022.47 1022.47 1022.47 1022.47 1022.47 1022.39 1022.35 1022.35 1022.31 1022.35 1022.31 1022.23 1022.19 1022.11 1022.07 1022.03 1021.91 1021.75 1021.67 1021.55 1021.31 1020.91 1020.63 1020.31 1020.07 1019.79 1019.55 1019.35 1019.15 1018.91 1018.79 1018.67 1018.63 1018.51 1018.39 1018.19 1017.99 1017.83 1017.71 1017.55 1017.39 1017.27 1017.11 1016.99 1016.83 1016.67 1016.51
1019.19 1019.43 1019.63 1019.83 1019.99 1020.19 1020.47 1020.67 1020.87 1021.07 1021.23 1021.35 1021.43 1021.47 1021.59 1021.67 1021.83 1021.91 1022.03 1022.07 1022.11 1022.19 1022.19 1022.19 1022.23 1022.19 1022.15 1022.11 1022.07 1022.07 1022.03 1021.95 1021.99 1021.99 1021.99 1021.91 1021.91 1021.83 1021.75 1021.63 1021.47 1021.27 1021.03 1020.67 1020.39 1020.07 1019.83 1019.59 1019.39 1019.19 1018.95 1018.75 1018.63 1018.55 1018.47 1018.35 1018.19 1017.95 1017.75 1017.63 1017.51 1017.39 1017.23 1017.11 1016.99 1016.87 1016.71 1016.59 1016.47
1018.87 1019.19 1019.43 1019.63 1019.79 1020.07 1020.31 1020.47 1020.71 1020.91 1021.07 1021.15 1021.19 1021.23 1021.35 1021.47 1021.55 1021.63 1021.71 1021.75 1021.83 1021.91 1021.95 1021.95 1021.95 1021.91 1021.91 1021.87 1021.87 1021.87 1021.79 1021.75 1021.75 1021.75 1021.75 1021.75 1021.75 1021.67 1021.51 1021.35 1021.19 1021.03 1020.79 1020.47 1020.19 1019.91 1019.67 1019.43 1019.19 1018.99 1018.79 1018.63 1018.51 1018.43 1018.35 1018.19 1017.91 1017.75 1017.55 1017.47 1017.35 1017.23 1017.11 1016.99 1016.87 1016.79 1016.63 1016.51 1016.39
1018.59 1018.91 1019.15 1019.35 1019.63 1019.87 1020.11 1020.35 1020.51 1020.71 1020.83 1020.91 1020.91 1020.95 1021.07 1021.15 1021.23 1021.35 1021.47 1021.55 1021.63 1021.67 1021.75 1021.75 1021.75 1021.75 1021.71 1021.71 1021.67 1021.63 1021.55 1021.59 1021.59 1021.55 1021.55 1021.51 1021.51 1021.43 1021.31 1021.11 1020.95 1020.79 1020.59 1020.35 1020.03 1019.75 1019.51 1019.27 1019.07 1018.79 1018.63 1018.47 1018.39 1018.31 1018.15 1017.95 1017.71 1017.51 1017.35 1017.31 1017.23 1017.11 1017.03 1016.91 1016.79 1016.71 1016.59 1016.47 1016.35
1018.31 1018.63 1018.91 1019.19 1019.39 1019.63 1019.91 1020.11 1020.35 1020.47 1020.55 1020.55 1020.59 1020.67 1020.79 1020.91 1020.99 1021.11 1021.27 1021.39 1021.47 1021.47 1021.47 1021.47 1021.47 1021.47 1021.47 1021.43 1021.35 1021.35 1021.31 1021.35 1021.39 1021.39 1021.35 1021.27 1021.27 1021.19 1021.07 1020.91 1020.75 1020.63 1020.39 1020.15 1019.87 1019.59 1019.35 1019.11 1018.91 1018.67 1018.51 1018.39 1018.27 1018.15 1017.95 1017.75 1017.55 1017.35 1017.23 1017.19 1017.11 1017.07 1016.95 1016.87 1016.75 1016.63 1016.59 1016.47 1016.27
1018.07 1018.39 1018.71 1018.95 1019.19 1019.43 1019.67 1019.91 1020.07 1020.19 1020.19 1020.19 1020.31 1020.39 1020.51 1020.63 1020.79 1020.91 1021.03 1021.11 1021.19 1021.23 1021.23 1021.23 1021.27 1021.23 1021.19 1021.15 1021.11 1021.07 1021.07 1021.11 1021.15 1021.19 1021.19 1021.11 1021.07 1020.99 1020.91 1020.71 1020.55 1020.39 1020.19 1019.91 1019.67 1019.43 1019.19 1018.99 1018.79 1018.55 1018.35 1018.23 1018.11 1017.95 1017.75 1017.59 1017.39 1017.23 1017.11 1017.07 1017.03 1016.95 1016.91 1016.79 1016.67 1016.59 1016.51 1016.43 1016.11
1017.83 1018.19 1018.47 1018.79 1018.99 1019.19 1019.43 1019.63 1019.75 1019.79 1019.87 1019.95 1020.07 1020.19 1020.31 1020.39 1020.51 1020.63 1020.75 1020.83 1020.91 1020.95 1020.99 1020.99 1020.99 1020.95 1020.91 1020.91 1020.91 1020.91 1020.87 1020.91 1020.91 1020.91 1020.95 1020.91 1020.83 1020.75 1020.63 1020.47 1020.27 1020.15 1019.99 1019.75 1019.55 1019.31 1019.07 1018.87 1018.63 1018.39 1018.19 1018.07 1017.95 1017.79 1017.63 1017.47 1017.27 1017.11 1016.99 1016.91 1016.91 1016.91 1016.83 1016.71 1016.63 1016.51 1016.47 1016.35 1016.07
1017.59 1017.91 1018.23 1018.51 1018.75 1018.91 1019.15 1019.35 1019.43 1019.47 1019.59 1019.75 1019.87 1019.95 1020.07 1020.11 1020.23 1020.35 1020.47 1020.59 1020.67 1020.71 1020.75 1020.75 1020.75 1020.75 1020.75 1020.71 1020.71 1020.67 1020.67 1020.67 1020.75 1020.75 1020.75 1020.67 1020.63 1020.47 1020.31 1020.19 1020.07 1019.99 1019.83 1019.67 1019.47 1019.19 1018.95 1018.71 1018.47 1018.23 1018.07 1017.95 1017.79 1017.67 1017.51 1017.35 1017.15 1016.95 1016.87 1016.83 1016.83 1016.83 1016.75 1016.63 1016.55 1016.47 1016.43 1016.31 1016.07
1017.35 1017.67 1017.95 1018.19 1018.43 1018.63 1018.87 1019.03 1019.15 1019.27 1019.39 1019.51 1019.59 1019.63 1019.71 1019.87 1019.99 1020.15 1020.27 1020.39 1020.47 1020.47 1020.47 1020.51 1020.55 1020.55 1020.55 1020.47 1020.47 1020.47 1020.47 1020.47 1020.47 1020.47 1020.47 1020.47 1020.39 1020.23 1020.11 1020.07 1019.99 1019.91 1019.75 1019.63 1019.39 1019.07 1018.79 1018.55 1018.35 1018.11 1017.91 1017.79 1017.67 1017.51 1017.35 1017.23 1017.07 1016.83 1016.71 1016.71 1016.75 1016.75 1016.63 1016.55 1016.47 1016.39 1016.35 1016.23 1016.07
Wind_Speed
7 7 6 6 6 5 5 5 5 5 5 4 4 4 4 4 4 4 4 4 4 4 4 4 4 3 3 4 5 5 6 6 6 6 7 7 6 6 6 6 5 5 5 5 5 5 5 5 4 4 4 4 4 4 4 4 4 4 5 5 5 5 6 7 8 9 9 9 7
8 8 7 8 7 6 5 5 5 5 5 4 4 4 5 4 4 4 4 4 4 4 4 4 4 3 4 5 5 6 6 6 6 7 6 6 6 6 6 5 5 5 5 6 5 5 5 5 4 4 4 4 4 4 4 4 4 5 5 6 5 5 5 6 7 8 8 8 7
8 8 7 7 7 6 5 5 5 5 5 4 4 4 4 4 4 4 4 4 4 4 4 3 3 4 4 5 5 5 6 6 6 6 6 6 6 6 6 5 5 6 6 6 5 5 5 5 4 5 5 4 4 5 5 5 4 4 5 6 5 4 5 6 6 7 7 6 6
8 8 8 7 8 7 7 6 5 5 5 4 4 4 4 4 4 4 4 4 3 4 4 4 4 4 4 5 5 5 6 6 6 6 6 6 6 6 6 5 5 6 6 6 6 6 6 5 4 4 4 5 5 5 5 5 4 4 4 4 4 4 5 5 5 5 5 6 6
9 8 8 8 9 8 7 6 6 6 5 4 4 4 4 4 3 3 3 3 3 4 4 5 4 4 4 5 5 6 6 7 7 7 6 6 6 6 6 5 5 6 6 6 6 6 6 5 4 4 4 5 5 5 5 5 5 4 4 4 4 4 5 5 5 5 5 6 6
9 8 8 8 8 7 6 6 7 6 5 4 5 5 4 4 4 4 4 4 4 4 5 5 5 5 5 5 5 6 6 6 6 6 5 6 6 6 5 6 6 6 6 6 6 6 6 5 4 4 4 4 4 5 5 5 5 5 5 5 5 5 5 5 5 5 6 7 8
9 9 9 8 8 7 6 6 6 5 5 5 6 6 6 5 5 5 5 5 4 4 4 4 5 5 5 5 5 6 6 6 5 5 5 6 6 6 6 6 6 6 6 6 6 6 5 4 4 4 5 5 5 5 6 6 5 5 6 7 6 5 5 5 5 5 6 8 10
9 9 9 9 9 8 8 7 6 6 5 5 6 7 7 7 7 6 6 4 4 4 4 4 4 5 5 5 6 6 6 6 6 6 6 5 6 6 6 6 6 6 6 6 6 6 5 4 4 4 4 4 5 5 6 7 6 7 7 8 7 6 5 6 5 5 7 9 10
7 8 8 8 8 8 8 8 7 7 7 7 7 8 8 7 7 6 5 5 5 5 4 4 5 5 5 6 6 6 6 6 6 6 6 5 6 6 6 5 6 6 6 6 6 6 6 4 4 4 5 5 5 6 7 7 8 8 8 8 8 7 7 6 6 7 8 9 10
8 8 8 8 8 8 8 8 8 8 8 8 8 8 8 8 7 6 5 5 4 4 4 4 5 5 5 6 6 6 6 6 6 6 6 6 6 6 6 5 6 6 6 6 6 6 5 4 5 5 5 5 6 7 8 8 8 9 8 7 7 8 9 9 8 9 9 10 10
10 9 8 8 8 8 8 7 7 7 7 7 7 7 7 8 7 6 5 4 4 4 5 5 5 5 6 6 6 6 6 6 5 6 6 6 6 6 6 6 6 7 7 7 5 5 5 5 6 7 7 7 7 7 8 8 9 9 9 8 8 9 10 11 11 10 10 10 11
10 9 8 8 8 8 8 8 7 7 7 7 7 7 7 6 6 6 5 4 5 5 5 5 5 6 6 6 6 6 6 6 6 6 6 6 7 7 7 7 7 7 7 7 5 5 5 5 6 7 8 9 8 7 8 9 9 10 10 10 10 11 11 12 12 11 10 10 11
10 9 8 8 8 8 8 8 7 6 7 7 7 7 6 6 6 6 6 6 6 5 5 5 5 6 6 6 6 5 5 6 6 6 6 6 7 7 7 7 7 7 7 7 6 5 5 6 7 8 9 9 8 8 9 9 9 10 11 11 11 12 12 13 13 12 11 11 12
10 9 9 8 8 8 8 8 7 6 7 7 7 7 6 6 6 6 6 6 6 6 5 5 5 5 6 6 6 6 6 6 6 6 6 7 7 7 7 7 7 7 7 7 6 6 7 7 8 8 9 10 10 10 10 10 10 10 11 11 12 12 13 13 13 13 13 13 13
10 9 9 9 9 8 8 8 7 6 7 7 7 6 6 6 6 6 6 6 6 6 5 5 5 5 6 6 6 6 6 6 6 6 7 7 7 7 7 7 7 7 7 7 6 7 7 8 8 9 9 10 11 11 11 11 11 11 11 11 12 13 13 14 13 13 13 13 14
10 10 9 9 9 9 8 8 7 6 7 7 7 6 6 5 5 5 6 6 6 5 5 5 5 5 5 6 6 6 6 6 6 7 7 7 7 7 7 8 8 8 8 8 7 7 8 8 8 9 9 10 11 11 11 11 12 12 12 12 13 13 13 14 14 14 14 14 14
10 10 10 10 10 10 10 9 7 7 7 7 7 6 6 6 5 5 6 7 5 5 5 6 6 5 5 5 5 5 5 6 6 7 7 7 8 8 8 8 8 8 8 8 8 8 9 9 9 9 9 10 11 11 12 12 12 12 13 13 13 13 14 14 14 14 14 14 15
11 11 10 11 11 11 11 10 8 8 8 8 7 7 6 6 5 6 6 6 6 6 6 6 6 5 5 5 5 5 5 6 6 7 7 8 8 8 8 8 8 8 8 8 8 9 10 10 10 9 9 10 11 11 12 12 12 13 13 13 13 14 14 14 14 14 14 14 15
12 11 11 12 12 12 11 11 10 9 8 8 7 6 6 6 6 6 6 6 6 6 7 6 6 5 5 6 6 5 5 6 7 7 8 8 8 8 8 8 8 8 8 8 9 9 10 10 10 10 10 10 11 12 12 13 13 13 13 13 13 14 14 14 14 14 14 14 15
12 12 12 13 12 12 11 11 10 9 8 7 7 7 7 7 7 7 7 7 6 6 6 6 6 6 6 6 6 6 6 6 7 7 8 8 8 8 8 8 9 9 9 8 9 9 9 10 10 10 10 11 12 13 13 14 13 14 13 13 13 13 14 14 14 14 14 14 14
13 13 13 12 12 11 11 10 9 8 7 7 8 8 8 7 7 7 7 7 6 6 6 6 6 6 6 6 6 6 6 6 6 7 8 8 8 8 9 8 8 8 8 8 9 9 9 10 10 10 10 11 12 13 14 14 14 14 14 13 13 13 14 14 14 14 14 14 14
13 12 12 11 11 11 10 9 8 8 8 8 8 8 7 7 7 7 7 6 5 5 6 6 7 7 7 7 7 7 6 6 6 7 7 7 8 8 8 8 8 8 8 8 9 9 9 9 10 10 11 11 13 14 14 14 14 14 14 14 14 14 14 14 14 14 14 14 14
12 11 10 10 10 10 10 9 8 8 8 8 8 8 8 8 7 7 6 5 5 5 6 6 6 6 7 7 7 7 7 6 7 7 7 7 8 8 8 8 8 8 9 8 8 8 8 9 10 10 11 12 13 14 15 14 14 14 14 14 15 15 14 14 14 13 13 13 13
11 10 9 8 9 10 10 9 9 9 9 9 8 8 8 7 7 6 5 6 6 6 6 5 5 6 6 6 6 6 7 7 8 8 8 8 8 8 8 7 7 8 8 8 8 9 9 9 9 10 10 11 12 12 13 13 12 12 13 13 14 14 14 14 14 14 13 14 13
10 10 9 9 9 9 9 9 9 9 9 9 8 8 7 7 6 6 5 6 6 6 6 6 5 5 5 6 6 6 7 7 8 8 9 9 8 8 7 7 7 7 7 8 12 15 16 14 12 10 9 9 9 10 10 10 11 11 12 12 13 13 14 14 14 14 14 14 13
10 10 10 10 10 10 10 10 10 10 9 9 8 8 7 7 6 6 5 6 6 6 6 6 5 6 6 5 6 6 6 6 7 8 8 9 8 8 7 7 6 6 7 9 15 18 19 19 18 15 12 9 8 9 9 9 10 11 11 12 13 13 13 13 13 13 13 13 14
10 10 11 10 10 10 11 11 10 10 9 9 9 9 8 7 6 6 6 6 6 5 5 5 5 6 6 5 5 6 6 6 6 7 8 8 8 8 8 7 7 6 7 12 16 19 19 19 20 19 17 12 9 9 9 9 10 11 11 12 12 12 12 12 13 13 13 13 14
11 11 11 10 11 11 11 10 10 10 10 10 10 9 8 7 6 6 6 5 5 4 4 4 5 5 4 4 5 6 7 7 7 7 7 7 8 8 8 8 7 8 10 15 18 19 19 19 20 20 19 16 12 9 9 9 9 10 10 10 10 10 10 11 11 11 12 12 13
11 11 11 11 11 11 11 10 11 11 11 10 9 8 8 7 7 7 6 6 5 5 5 4 4 4 3 4 5 6 6 7 7 6 6 7 8 8 8 8 8 10 13 18 19 20 20 20 20 20 20 19 14 10 8 8 8 8 8 8 8 9 10 11 11 11 11 11 11
12 11 11 12 12 11 11 11 11 11 10 9 9 8 8 8 7 7 7 6 6 6 5 4 4 4 5 6 5 5 6 6 6 6 6 7 8 8 9 9 8 10 13 18 19 20 20 19 20 20 21 21 17 13 9 8 8 9 9 9 9 11 12 13 14 14 13 12 12
12 12 12 12 12 12 12 12 11 10 9 8 8 9 8 8 8 8 7 7 7 6 6 5 5 6 6 6 5 5 6 6 6 6 6 7 9 9 9 9 9 10 13 17 19 19 19 19 20 20 21 21 18 13 9 9 9 9 10 10 11 12 13 13 13 13 13 13 13
12 12 12 12 12 12 12 11 10 10 9 9 9 9 9 9 9 7 6 6 6 6 6 6 6 6 6 5 5 5 6 6 6 7 7 8 8 9 9 9 8 10 13 17 19 19 19 19 20 20 21 21 18 14 10 9 9 10 10 11 12 12 12 11 11 11 12 12 12
12 12 12 13 13 12 11 11 10 10 10 10 10 10 10 9 8 6 6 5 5 6 6 7 7 7 6 6 5 5 6 6 7 8 9 9 8 8 8 8 8 10 13 18 19 19 19 19 20 20 21 21 17 12 9 8 9 9 10 10 10 11 11 12 10 10 10 10 10
13 13 13 13 12 12 11 10 10 10 10 10 11 11 10 9 8 7 7 6 6 6 6 6 6 6 6 6 5 6 6 7 7 7 8 8 8 8 8 7 7 10 14 18 19 19 19 19 19 20 20 20 14 10 8 9 9 10 10 10 9 9 9 9 9 9 9 9 8
13 13 13 13 12 11 11 11 10 11 11 11 11 11 10 10 9 9 8 8 7 6 5 5 5 5 5 5 5 6 6 7 7 7 7 7 7 7 8 8 8 11 15 19 19 19 19 19 19 20 19 17 11 8 8 9 10 10 10 9 8 8 8 7 7 7 7 7 7
14 14 13 13 12 12 11 11 11 11 12 12 12 12 11 10 9 8 8 8 7 6 5 5 4 4 5 5 5 6 7 7 7 8 7 7 7 7 8 8 8 11 15 18 19 19 19 19 19 19 18 14 9 7 8 9 9 9 8 7 6 6 6 6 5 5 5 6 6
14 14 13 13 12 12 12 12 12 12 13 13 13 12 11 11 9 8 7 7 6 6 6 5 5 5 5 6 6 6 7 6 7 7 7 7 7 7 8 9 8 10 13 17 18 18 18 18 19 18 16 11 8 7 8 9 8 7 6 5 5 5 5 4 4 5 5 6 7
14 13 13 13 13 12 12 12 12 13 14 14 13 12 11 9 8 7 7 8 7 7 6 6 6 6 6 5 6 6 7 7 7 7 7 8 7 8 8 8 8 9 11 15 17 18 18 18 18 17 15 10 8 7 7 8 7 6 5 4 3 3 3 3 3 4 5 6 10
14 13 13 13 13 13 13 13 13 14 14 13 12 11 10 8 8 7 7 8 7 6 6 6 6 6 6 6 6 6 6 6 7 7 7 7 8 8 9 9 8 9 11 14 17 18 18 17 17 17 16 12 8 7 7 7 7 6 5 3 2 3 3 3 3 3 4 6 11
13 13 13 13 13 13 13 13 14 14 13 12 11 11 10 9 8 8 7 7 6 6 6 6 6 7 7 7 7 6 6 6 6 6 7 7 8 10 11 10 9 9 11 14 16 17 17 16 17 17 15 11 8 6 6 6 6 6 4 2 2 2 3 3 3 3 4 5 8
13 13 14 14 13 13 13 14 14 13 12 11 11 11 10 9 8 7 7 6 6 6 6 6 6 7 7 7 7 6 6 6 6 6 6 7 8 9 10 9 8 9 10 12 14 16 16 16 16 16 15 11 8 6 5 5 6 5 4 2 2 2 2 3 3 3 4 4 5
Wind_Direction
193 193 194 194 196 197 198 203 203 200 196 192 196 198 199 198 205 211 213 211 216 222 226 227 228 232 236 237 238 241 244 249 251 252 251 249 245 244 245 249 251 255 261 267 270 273 274 271 271 273 277 278 279 279 280 281 282 284 284 284 287 290 293 294 294 295 295 295 294
195 195 196 199 199 198 197 201 205 203 200 196 196 197 198 198 205 211 215 215 219 221 225 229 229 230 234 240 239 239 242 247 249 251 252 250 247 245 246 249 252 256 260 265 268 271 273 272 272 275 279 280 282 284 284 282 280 281 282 282 284 288 292 292 292 293 294 294 294
195 195 195 197 196 194 194 200 204 204 203 203 201 200 200 202 206 210 214 216 218 220 223 229 230 230 233 240 242 241 240 242 244 246 248 249 248 247 247 249 254 260 264 267 267 269 270 270 272 275 279 281 283 285 285 284 282 281 281 281 284 288 290 291 291 292 294 294 293
193 192 194 197 195 194 194 197 200 203 204 204 202 202 203 205 206 209 212 214 215 218 221 225 229 232 235 239 245 246 245 244 242 241 242 244 246 247 247 249 256 262 266 268 268 268 269 268 270 273 275 276 278 279 279 281 281 281 280 281 284 286 287 287 288 290 291 291 290
195 194 195 196 195 195 195 194 196 200 203 201 200 202 206 208 207 207 208 211 215 218 220 221 227 233 238 240 244 248 250 250 249 245 241 241 245 247 249 252 256 260 265 267 268 269 269 268 271 272 271 270 272 272 273 274 276 278 280 284 285 285 284 284 285 286 287 288 288
197 197 197 196 194 194 194 194 195 197 199 194 195 200 205 206 204 205 209 215 219 221 223 227 234 239 243 243 244 246 249 250 250 247 243 244 248 250 253 255 257 260 264 268 269 270 269 267 272 274 274 273 273 273 272 270 274 279 283 287 286 285 283 281 281 282 284 284 285
194 194 195 196 193 193 194 195 195 194 193 190 194 200 204 204 204 207 211 217 221 226 231 235 240 244 246 247 247 248 248 249 249 245 243 245 250 253 255 257 259 262 264 266 269 271 270 264 270 275 278 281 282 281 278 275 278 282 286 287 287 285 281 277 277 279 281 281 282
192 193 193 193 192 192 193 193 192 192 192 195 199 202 205 205 207 211 215 222 227 231 234 238 238 240 242 244 247 248 249 249 251 249 246 245 250 253 256 258 262 265 265 265 267 268 269 267 269 272 275 279 282 282 282 282 283 284 284 285 285 283 279 276 276 277 279 279 279
194 195 194 192 191 191 192 191 190 191 194 200 203 204 205 206 209 212 218 225 229 231 232 234 235 236 237 240 242 244 245 245 248 249 249 247 250 254 258 261 264 267 268 268 267 266 266 268 270 271 271 274 277 280 282 284 284 283 282 282 283 282 281 279 278 279 278 278 277
195 195 194 193 194 192 191 190 191 193 196 202 205 207 208 212 212 213 216 221 226 228 230 231 232 233 235 236 238 240 241 241 242 245 247 249 250 253 256 260 263 267 270 271 269 267 266 266 269 270 271 273 275 278 280 281 281 280 280 281 283 284 284 284 282 280 279 277 275
194 193 191 192 193 191 189 190 195 197 199 204 206 209 212 216 216 214 213 215 220 226 229 229 227 229 231 234 235 236 237 237 238 241 245 250 252 253 255 258 260 263 267 269 269 268 267 266 269 271 272 274 275 277 278 279 278 279 279 281 282 284 285 284 283 281 279 277 275
193 192 191 191 189 187 187 191 196 200 203 207 209 211 212 216 216 215 214 214 219 226 229 227 223 223 226 231 233 235 236 236 237 240 245 249 252 255 257 259 261 262 264 266 266 266 266 265 267 270 273 275 277 277 278 278 278 280 281 282 283 283 283 283 282 281 279 278 277
191 190 190 190 186 185 188 193 198 201 204 209 211 212 213 217 216 215 214 216 221 226 229 227 221 220 222 228 231 234 236 237 238 242 246 250 254 256 259 262 262 263 264 265 263 262 262 264 265 268 271 274 275 276 276 276 277 278 280 282 282 282 281 281 281 280 280 280 278
189 189 190 188 186 187 191 197 201 204 207 210 212 212 213 216 217 215 214 216 222 226 228 227 223 221 221 223 229 233 236 239 241 245 250 254 256 258 260 263 263 264 264 265 263 260 260 262 264 266 269 272 273 274 274 274 274 274 275 277 278 278 279 279 279 280 280 280 279
190 191 190 188 188 191 195 200 204 206 208 212 213 212 211 215 218 216 214 215 220 223 224 225 228 228 227 225 229 233 237 242 244 248 253 257 259 260 260 263 264 264 264 265 265 262 260 261 263 265 267 269 271 272 273 272 272 271 272 272 273 274 275 276 277 278 278 277 278
192 193 192 190 192 196 199 202 206 207 210 213 212 211 211 214 216 215 213 214 218 220 221 223 229 233 236 235 234 236 239 244 246 249 253 258 260 261 261 262 263 264 264 265 267 267 266 264 264 264 265 267 269 271 271 271 271 270 270 270 270 271 272 273 274 275 275 275 275
194 195 194 194 197 200 202 204 206 208 210 213 211 210 210 212 213 215 215 214 215 217 221 226 228 233 240 245 242 241 242 245 248 249 251 254 257 259 260 261 262 263 264 264 267 269 270 270 269 268 267 267 268 269 270 270 269 269 268 268 269 269 270 271 272 273 273 274 273
197 197 197 197 200 202 204 204 206 208 210 211 211 210 210 209 211 214 217 216 212 215 222 230 231 233 237 243 245 245 245 246 249 249 250 251 253 256 258 260 262 263 263 263 265 267 269 271 271 271 270 269 268 268 268 268 268 268 267 268 268 268 268 269 269 270 270 271 271
198 198 199 201 203 204 205 205 206 208 209 209 209 210 210 209 209 212 216 219 215 216 221 231 235 236 236 238 243 246 247 247 249 250 252 252 253 255 257 259 261 262 262 262 263 265 267 269 270 271 270 270 269 269 269 268 268 268 268 268 268 268 267 267 266 266 266 266 267
199 199 201 202 203 204 204 205 206 207 208 208 208 210 211 211 208 210 215 221 219 218 219 227 233 238 239 239 243 246 248 249 249 251 253 254 254 255 256 258 260 261 262 261 262 264 265 267 268 268 268 268 269 269 269 269 269 269 269 269 268 267 266 265 265 264 263 263 263
200 201 201 202 202 202 204 205 205 205 206 208 209 210 211 210 209 211 214 219 217 217 218 224 230 235 239 242 244 247 249 250 248 250 252 254 255 255 255 256 259 261 262 262 263 264 265 266 266 266 266 266 267 267 267 268 269 269 269 269 268 267 265 265 264 264 263 262 261
201 201 200 200 200 201 201 202 202 204 206 208 209 210 211 211 211 212 214 215 213 214 218 223 227 231 236 240 244 247 251 254 250 249 251 254 256 257 257 258 259 262 264 264 264 265 265 266 265 264 264 264 264 264 264 265 267 268 269 269 268 267 267 266 265 264 263 262 261
200 198 198 198 199 200 200 200 200 203 207 210 211 211 211 211 212 211 211 211 213 216 219 223 227 231 235 239 243 248 254 259 258 256 255 254 256 258 260 261 261 262 263 264 264 263 263 264 261 259 257 257 258 259 260 261 262 264 266 267 268 268 268 268 266 264 263 262 261
196 194 194 195 196 198 199 198 200 204 208 211 211 210 210 211 210 209 208 210 214 218 222 227 230 234 237 242 245 248 253 258 261 263 262 258 258 258 259 261 260 259 260 261 262 263 262 261 256 253 250 249 251 253 254 255 256 258 261 264 267 269 270 270 269 267 266 264 262
192 191 191 193 194 196 198 198 201 205 209 211 209 209 208 208 206 205 208 213 218 221 225 231 237 240 243 246 248 248 249 251 256 260 263 264 262 261 260 261 260 259 259 261 268 273 276 278 275 269 262 257 257 258 259 258 258 259 260 263 266 269 271 272 272 271 270 268 265
188 189 191 193 193 196 198 201 203 205 208 208 207 207 207 206 203 204 208 217 223 226 229 232 240 246 248 248 248 247 247 247 249 253 257 262 265 265 264 263 262 260 261 265 273 279 284 287 287 285 283 277 273 271 270 269 266 264 264 264 266 269 271 274 276 276 275 273 270
187 190 193 193 193 197 200 202 203 204 206 206 206 206 206 204 202 205 211 221 226 230 233 235 241 248 251 250 249 248 249 250 249 250 252 256 262 265 266 267 264 263 264 270 278 283 288 290 291 292 291 288 282 276 273 272 271 269 268 268 270 272 274 277 278 279 278 276 275
189 191 192 192 195 199 201 201 202 204 206 205 205 205 204 202 204 209 216 224 229 234 238 241 241 244 247 247 247 247 248 251 252 253 255 256 259 261 263 266 265 266 270 275 283 289 293 295 295 295 294 292 286 280 276 274 275 274 274 275 277 279 280 281 281 281 280 280 280
190 190 191 193 198 200 201 200 203 205 206 205 204 204 203 204 208 214 219 225 230 235 239 242 240 238 238 240 242 245 247 249 252 254 256 259 261 261 262 264 264 268 274 281 288 293 296 297 296 295 295 294 292 289 285 282 281 282 284 286 288 290 290 290 290 291 290 290 289
189 189 192 195 199 200 201 202 204 204 204 203 202 203 205 208 213 217 222 226 230 233 235 236 236 237 238 239 241 245 248 250 251 252 255 259 261 263 263 264 263 268 276 284 291 295 297 297 297 296 296 296 295 294 292 290 290 292 294 295 296 297 297 297 297 298 299 299 297
188 190 193 196 199 202 203 203 203 202 202 202 202 204 208 212 216 220 222 224 229 233 235 234 234 237 240 241 242 246 249 253 254 255 255 256 261 263 265 266 265 270 278 286 291 295 297 298 298 298 299 299 299 298 296 296 297 297 297 297 297 298 298 297 298 299 300 301 300
187 190 193 197 201 203 203 202 201 201 202 203 205 208 211 215 218 220 222 224 228 233 235 234 235 238 242 244 244 245 248 252 254 254 254 253 256 260 264 267 268 272 279 286 292 296 299 301 301 301 301 302 302 302 301 300 299 297 295 295 296 296 296 295 296 298 300 301 303
188 191 194 198 201 203 202 199 199 200 203 205 208 211 214 218 220 222 223 224 227 229 230 231 233 236 240 242 244 245 247 248 249 251 254 255 256 260 265 271 272 276 282 289 295 299 302 304 304 304 304 305 305 305 304 301 297 295 294 295 296 295 294 294 296 298 300 302 306
188 191 195 199 201 201 200 198 199 201 204 209 212 214 215 217 220 222 224 224 224 225 226 228 230 233 236 237 239 242 246 250 250 251 253 255 259 264 269 272 273 279 286 292 298 302 304 306 306 306 306 308 308 306 302 297 294 294 295 296 295 293 293 295 297 299 301 304 309
188 191 195 199 200 199 198 198 199 202 206 211 215 216 217 217 219 221 223 224 224 225 226 227 228 232 235 236 236 240 245 252 254 255 255 257 260 265 269 270 272 280 287 294 300 303 306 307 308 308 309 310 309 305 299 295 295 296 296 296 295 294 294 297 298 301 304 308 310
188 190 194 197 198 198 198 198 200 204 208 213 216 217 217 218 219 220 222 224 226 227 227 227 228 231 233 236 236 238 241 245 250 254 257 259 261 266 270 273 274 281 288 295 300 304 307 309 310 310 311 310 306 301 297 297 298 298 298 296 295 296 298 301 303 306 309 311 310
188 190 193 195 196 197 198 198 201 206 211 215 216 216 216 217 218 219 219 218 222 225 227 226 227 229 231 233 235 237 238 238 244 251 258 262 264 268 272 276 277 282 288 295 301 305 309 311 311 311 310 308 303 299 298 300 300 299 296 293 293 296 298 301 305 309 311 313 316
187 189 192 194 196 197 198 199 203 208 212 215 216 216 215 215 216 217 216 215 218 222 225 226 227 228 230 231 236 239 240 239 241 247 255 262 263 267 272 277 279 282 288 296 302 307 310 312 311 310 309 306 302 299 299 301 300 296 292 289 291 293 294 298 305 310 314 314 325
185 187 191 194 196 197 199 201 206 210 213 215 215 215 214 213 214 214 214 213 215 217 221 225 227 229 230 232 238 242 244 243 241 244 250 257 262 268 274 279 282 285 291 298 303 307 310 311 309 309 309 307 303 300 299 301 298 293 287 281 282 284 288 295 305 310 311 311 326
182 186 190 194 196 198 200 204 209 211 213 213 213 213 212 211 213 214 215 214 214 215 219 225 228 230 232 235 239 244 247 249 245 244 247 252 262 272 279 284 286 290 294 298 302 305 308 309 308 309 309 306 301 298 298 300 296 290 282 267 267 277 288 300 308 309 307 305 319
180 185 190 195 197 199 201 206 210 212 212 212 212 212 211 209 211 212 212 213 214 216 220 226 230 232 235 238 241 245 249 254 252 250 249 254 265 275 282 286 288 289 290 292 297 301 305 307 308 309 309 306 302 299 300 301 296 288 277 252 249 269 292 309 310 307 303 301 305